Flight Track Log - Related Links

Times and Time Zones

All times are in EDT time to prevent confusion due to time zone crossing. See the N81AU flight status page for this flight to view local times or setup timezone preferences in your user account.

Time Position Orientation Groundspeed Altitude Reporting Facility
EDT Latitude Longitude Course Direction KTS MPH feet Rate Location/Type
Wed 11:40:28 AM 30.5433 -85.7603 North 105 121 6,200  Level Jacksonville Center
Wed 11:41:47 AM 30.5808 -85.7542 North 108 124 6,800 448 Climbing Jacksonville Center
Wed 11:42:42 AM 30.6103 -85.7503 North 108 124 7,200 207 Climbing Jacksonville Center
Wed 11:43:43 AM 30.6458 -85.7417 12° North 142 163 7,200 -49 Level Jacksonville Center
Wed 11:44:44 AM 30.6897 -85.7406 North 155 178 7,100 -49 Descending Jacksonville Center
Wed 11:45:45 AM 30.7314 -85.7492 350° North 160 184 7,100  Level Jacksonville Center
Wed 11:46:46 AM 30.7750 -85.7578 350° North 154 177 7,100 -49 Level Jacksonville Center
Wed 11:47:47 AM 30.8208 -85.7639 353° North 155 178 7,000  Descending Jacksonville Center
Wed 11:48:47 AM 30.8625 -85.7653 358° North 155 178 7,100 50 Climbing Jacksonville Center
Wed 11:49:48 AM 30.9064 -85.7642 North 152 175 7,100  Level Jacksonville Center
Wed 11:50:49 AM 30.9464 -85.7531 13° North 159 183 7,100 -49 Level Jacksonville Center
Wed 11:51:50 AM 30.9906 -85.7353 19° North 156 180 7,000  Descending Jacksonville Center
Wed 11:52:51 AM 31.0325 -85.7219 15° North 157 181 7,100 49 Climbing Jacksonville Center
Wed 11:53:52 AM 31.0728 -85.7061 19° North 153 176 7,100  Level Jacksonville Center
Wed 11:54:47 AM 31.1125 -85.6928 16° North 156 180 7,100  Level Jacksonville Center
Wed 11:55:47 AM 31.1525 -85.6794 16° North 156 180 7,100 -47 Level Jacksonville Center
Wed 11:56:54 AM 31.1989 -85.6614 North 153 176 7,000  Descending Jacksonville Center
Wed 11:57:49 AM 31.2369 -85.6456 20° North 149 171 7,100 52 Climbing Jacksonville Center
Wed 11:58:50 AM 31.2747 -85.6319 17° North 147 169 7,100  Level Jacksonville Center
Wed 11:59:51 AM 31.3128 -85.6111 25° Northeast 148 170 7,100  Level Jacksonville Center
Wed 12:00:52 PM 31.3528 -85.5928 21° North 148 170 7,100 -49 Level Jacksonville Center
Wed 12:01:53 PM 31.3906 -85.5769 20° North 151 174 7,000 -50 Descending Jacksonville Center
Wed 12:02:53 PM 31.4328 -85.5586 20° North 151 174 7,000  Level Jacksonville Center
Wed 12:03:48 PM 31.4686 -85.5428 21° North 153 176 7,000  Level Jacksonville Center
Wed 12:04:55 PM 31.5147 -85.5414 North 150 173 7,000  Level Jacksonville Center
Wed 12:05:56 PM 31.5583 -85.5500 350° North 149 171 7,000 49 Level Jacksonville Center
Wed 12:06:57 PM 31.5956 -85.5633 343° North 148 170 7,100 49 Climbing Jacksonville Center
Wed 12:07:58 PM 31.6347 -85.5839 336° Northwest 152 175 7,100 -49 Level Jacksonville Center
Wed 12:08:59 PM 31.6739 -85.6069 333° Northwest 154 177 7,000  Descending Jacksonville Center
Wed 12:10:00 PM 31.7156 -85.6108 355° North 154 177 7,100 49 Climbing Jacksonville Center
Wed 12:11:01 PM 31.7553 -85.6192 350° North 146 168 7,100  Level Jacksonville Center
Wed 12:12:01 PM 31.7967 -85.6350 342° North 143 165 7,100  Level Jacksonville Center
Wed 12:13:02 PM 31.8339 -85.6461 346° North 147 169 7,100  Level Jacksonville Center
Wed 12:14:03 PM 31.8756 -85.6569 348° North 147 169 7,100  Level Jacksonville Center
Wed 12:16:00 PM 31.9397 -85.6791 344° North  Level FlightAware Approximate
Wed 12:23:00 PM 32.1701 -85.7588 343° North  Level FlightAware Approximate
Wed 12:24:00 PM 32.2029 -85.7707 343° North  Level FlightAware Approximate
Wed 12:25:00 PM 32.2357 -85.7826 343° North  Level FlightAware Approximate
Wed 12:26:00 PM 32.2684 -85.7946 343° North  Level FlightAware Approximate
Wed 12:27:00 PM 32.3014 -85.8056 345° North  Level FlightAware Approximate
Wed 12:28:00 PM 32.3346 -85.8158 345° North  Level FlightAware Approximate

Login

Don't have an account? Register now (free) for customized features, flight alerts, and more!